STARLINK-36710

Last updated on Fri Mar 27 2026 00:02:06 GMT+0000 (Coordinated Universal Time)

1 67971U 26038L 26085.50002314 .00062770 00000+0 19328-2 0 9991 2 67971 97.2850 96.3733 0001282 59.3927 15.2622 15.33406959 5909
UTC large
Height (km)
Speed (km/s)
/
Latitude / Longitude
Inclination (degrees)
Orbital Period (minutes)
Azimuth
Elevation
Range (km)
Doppler Factor

Next 0 passes for location: London (51.5072 / 0.1276)

Sorry there are no passes over London.